STARLINK-36625

Last updated on Thu Mar 05 2026 00:02:08 GMT+0000 (Coordinated Universal Time)

1 67668U 26022W 26063.42871247 .00499616 00000+0 31370-2 0 9997 2 67668 97.2834 97.1888 0001950 21.6123 338.5225 15.75348374 4727
UTC large
Height (km)
Speed (km/s)
/
Latitude / Longitude
Inclination (degrees)
Orbital Period (minutes)
Azimuth
Elevation
Range (km)
Doppler Factor

Next 0 passes for location: London (51.5072 / 0.1276)

Sorry there are no passes over London.